Weather History for Lebanon, NH

Change the Weather History Date:

Sunday, November 10, 2013

  Actual Average Record
Temperature  
Mean Temperature 40 °F -  
Max Temperature 46 °F 47 °F 71 °F (1931)
Min Temperature 33 °F 31 °F 12 °F (2004)
Degree Days  
Heating Degree Days 26    
Moisture  
Dew Point 34 °F    
Average Humidity 85    
Maximum Humidity 93    
Minimum Humidity 70    
Precipitation  
Precipitation 0.11 in - - ()
Sea Level Pressure  
Sea Level Pressure 29.82 in    
Wind  
Wind Speed 3 mph (SW)    
Max Wind Speed 13 mph    
Max Gust Speed 21 mph    
Visibility 6 miles    
Events Fog , Rain , Snow    
Averages and records for this station are not official NWS values.
T = Trace of Precipitation, MM = Missing Value Source: NWS Daily Summary

Daily Weather History Graph

Daily Weather History Graph

Search for Another Location

Airport:

Trip Planner

Search our weather history database for the weather conditions in past years. The results will help you decide how hot, cold, wet, or windy it might be!

Date:

Astronomy

Nov. 10, 2013 Rise Set
Actual Time 6:36 AM EST 4:28 PM EST
Civil Twilight 6:06 AM EST 4:59 PM EST
Nautical Twilight 5:31 AM EST 5:33 PM EST
Astronomical Twilight 4:58 AM EST 6:07 PM EST
Moon 12:44 PM EST (11/10) No Moon Set
Length of Visible Light 10h 52m
Length of Day
9h 51m
First Quarter, 55% of the Moon is Illuminated
Nov 10
First Quarter
Nov 17
Full
Nov 25
Last Quarter
Dec 2
New
Dec 9
First Quarter

Hourly Weather History & Observations

Time (EST) Temp. Windchill Dew Point Humidity Pressure Visibility Wind Dir Wind Speed Gust Speed Precip Events Conditions
12:02 AM 37.4 °F 34.9 °F 30.2 °F 75% 29.96 in 10.0 mi Variable 3.5 mph - 0.00 in Rain Light Rain
12:53 AM 36.0 °F 33.3 °F 32.0 °F 86% 29.95 in 9.0 mi SSE 3.5 mph - 0.01 in   Overcast
1:23 AM 35.6 °F - 32.0 °F 87% 29.92 in 10.0 mi Calm Calm - 0.00 in   Overcast
1:53 AM 36.0 °F - 33.1 °F 89% 29.92 in 10.0 mi Calm Calm - 0.00 in   Overcast
2:53 AM 36.0 °F - 33.1 °F 89% 29.88 in 8.0 mi Calm Calm - 0.01 in Rain Light Rain
3:33 AM 35.6 °F - 33.8 °F 93% 29.87 in 7.0 mi Calm Calm - 0.01 in Rain Light Rain
3:53 AM 35.1 °F - 33.1 °F 92% 29.88 in 4.0 mi Calm Calm - 0.02 in Snow Light Snow
4:02 AM 35.6 °F - 32.0 °F 87% 29.85 in 2.5 mi Calm Calm - 0.01 in Snow Light Snow
4:18 AM 33.8 °F - 32.0 °F 93% 29.85 in 4.0 mi Calm Calm - 0.02 in Snow Light Snow
4:43 AM 33.8 °F - 32.0 °F 93% 29.84 in 6.0 mi Calm Calm - 0.02 in   Overcast
4:53 AM 34.0 °F - 30.9 °F 89% 29.85 in 5.0 mi Calm Calm - 0.02 in   Overcast
5:53 AM 33.1 °F - 30.0 °F 89% 29.83 in 4.0 mi Calm Calm - N/A   Partly Cloudy
6:22 AM 33.8 °F - 30.2 °F 87% 29.82 in 1.8 mi Calm Calm - N/A   Scattered Clouds
6:28 AM 33.8 °F - 32.0 °F 93% 29.82 in 0.5 mi Calm Calm - N/A Fog Fog
6:53 AM 33.1 °F - 30.0 °F 89% 29.83 in 0.5 mi Calm Calm - N/A Fog Fog
7:16 AM 33.8 °F - 32.0 °F 93% 29.82 in 1.0 mi Calm Calm - N/A   Overcast
7:39 AM 33.8 °F - 32.0 °F 93% 29.81 in 1.0 mi Calm Calm - N/A   Overcast
7:53 AM 34.0 °F - 32.0 °F 92% 29.83 in 1.0 mi Calm Calm - N/A   Overcast
8:00 AM 33.8 °F - 32.0 °F 93% 29.81 in 5.0 mi Calm Calm - N/A   Overcast
8:53 AM 36.0 °F - 33.1 °F 89% 29.83 in 3.0 mi Calm Calm - N/A   Overcast
9:53 AM 37.9 °F - 35.1 °F 89% 29.80 in 5.0 mi Calm Calm - 0.00 in   Overcast
10:53 AM 39.9 °F 37.8 °F 36.0 °F 86% 29.78 in 8.0 mi West 3.5 mph - N/A   Partly Cloudy
11:53 AM 43.0 °F 38.8 °F 37.9 °F 82% 29.75 in 10.0 mi South 6.9 mph - N/A   Mostly Cloudy
12:53 PM 43.0 °F 38.8 °F 37.9 °F 82% 29.73 in 10.0 mi SSW 6.9 mph - 0.00 in Rain Light Rain
1:53 PM 46.9 °F - 37.9 °F 71% 29.71 in 10.0 mi South 10.4 mph - 0.00 in   Scattered Clouds
2:19 PM 44.6 °F 38.4 °F 37.4 °F 76% 29.72 in 2.5 mi West 12.7 mph 20.7 mph 0.03 in Rain Rain
2:27 PM 42.8 °F 38.6 °F 37.4 °F 81% 29.72 in 3.0 mi West 6.9 mph 20.7 mph 0.03 in Rain Light Rain
2:53 PM 43.0 °F 40.3 °F 37.0 °F 80% 29.73 in 10.0 mi WSW 4.6 mph - 0.03 in   Scattered Clouds
3:53 PM 43.0 °F 39.5 °F 37.9 °F 82% 29.75 in 10.0 mi South 5.8 mph - 0.00 in Rain Light Rain
4:53 PM 42.1 °F 37.7 °F 36.0 °F 79% 29.76 in 10.0 mi SSW 6.9 mph - 0.01 in Rain Light Rain
5:53 PM 39.0 °F 33.4 °F 35.1 °F 86% 29.77 in 10.0 mi South 8.1 mph - 0.00 in   Scattered Clouds
6:53 PM 37.9 °F 32.1 °F 35.1 °F 89% 29.77 in 10.0 mi South 8.1 mph - 0.00 in Rain Light Rain
7:53 PM 39.9 °F 35.1 °F 36.0 °F 86% 29.78 in 10.0 mi South 6.9 mph - 0.01 in   Overcast
8:53 PM 42.1 °F 40.2 °F 35.1 °F 76% 29.80 in 10.0 mi West 3.5 mph - 0.00 in Rain Light Rain
9:53 PM 41.0 °F 35.8 °F 33.1 °F 73% 29.81 in 10.0 mi West 8.1 mph 16.1 mph 0.00 in   Overcast
10:53 PM 39.9 °F 33.4 °F 30.9 °F 70% 29.83 in 10.0 mi West 10.4 mph - N/A   Overcast
11:53 PM 37.9 °F 32.7 °F 30.9 °F 76% 29.86 in 10.0 mi West 6.9 mph - N/A   Overcast